Location: ??????????
(44.2167°N, 135.5333°E)
Time: 13:52:26
(UTC+00:00)

USA 234 - Pass Details

Date: 15 June 2025
Orbit: 1097 x 1111 km, 123.0° (Epoch: 19 June)

Event Time Altitude Azimuth Distance (km) Brightness Sun altitude
Rises 16:41:49 0° 50° (NE) 3,917 7.3 -18.4°
Reaches altitude 10° 16:44:21 10° 46° (NE) 2,959 6.6 -18.2°
Maximum altitude 16:50:38 53° 332° (NNW) 1,334 3.9 -17.7°
Drops below altitude 10° 16:56:55 10° 258° (WSW) 2,959 5.1 -17.2°
Enters shadow 16:57:02 10° 257° (WSW) 3,000 5.2 -17.2°
